Wind_Speed
11 13 16 15 16 16 15 17 20 20 22 27 27 27 24 23 27 27 27 25 24 22 32 29 25 25 28 30 31 33 35 35 35 35 34 32 31 31 33 37 39 41 42 44
15 20 20 19 19 18 15 20 25 27 22 23 28 32 27 24 27 32 24 21 19 24 28 30 30 30 30 32 31 32 31 31 32 32 30 29 29 32 34 36 38 40 41 42
21 18 5 16 17 18 21 21 23 26 24 25 26 37 29 30 34 33 29 19 17 23 30 30 27 28 29 28 28 28 29 29 27 26 26 27 30 32 34 35 37 38 40 42
19 20 22 21 20 19 24 17 19 18 18 22 15 28 26 28 24 21 27 25 25 31 26 29 28 27 27 28 27 26 25 22 22 23 26 30 32 33 35 36 36 36 36 37
11 10 12 9 11 11 15 15 15 15 19 22 24 20 39 26 27 25 24 26 22 21 23 25 22 23 25 23 20 18 18 18 20 24 26 28 29 29 29 30 31 33 34 34
20 17 15 14 14 14 16 15 18 19 20 19 28 26 34 24 6 8 18 16 14 17 21 24 22 23 19 16 16 15 17 18 20 22 22 23 23 24 25 25 26 27 28 29
14 20 17 19 16 14 14 12 8 7 12 13 27 27 8 6 10 5 16 17 17 18 23 23 19 20 18 16 14 16 17 18 19 19 18 19 20 20 23 23 24 26 24 23
18 20 17 17 15 13 16 19 17 16 12 15 27 19 14 6 17 10 14 12 20 22 24 21 20 19 13 13 15 16 17 18 17 17 15 16 18 19 20 22 24 26 31 29
9 13 6 10 9 10 13 17 20 23 24 21 24 26 11 12 1 3 7 13 14 19 25 22 17 11 12 16 16 17 17 17 16 15 16 16 17 18 19 19 21 23 27 35
14 18 17 18 17 19 20 18 18 18 12 16 19 23 7 12 17 11 12 12 11 10 13 15 14 13 15 18 18 18 18 16 16 17 18 17 18 18 18 19 19 21 23 27
12 17 22 16 19 18 16 24 23 23 18 12 14 9 8 4 8 3 2 7 9 12 21 20 18 16 18 19 20 19 18 16 17 17 16 16 17 16 16 17 18 18 19 20
13 13 16 22 21 21 22 24 23 19 21 22 14 13 20 13 10 13 19 25 25 24 24 19 23 28 28 22 21 19 18 17 17 16 16 16 15 15 15 15 16 17 16 17
9 11 16 16 17 17 20 17 20 24 30 32 14 11 14 16 16 24 37 28 23 21 20 25 23 26 26 19 19 19 18 17 17 16 15 15 14 14 14 14 15 16 16 16
19 20 18 21 19 21 24 22 22 23 19 19 24 28 25 22 26 27 32 28 30 23 22 20 19 24 25 18 16 18 17 14 14 14 14 14 13 12 12 13 13 14 15 15
15 24 22 27 25 24 27 28 29 29 29 24 31 30 30 27 28 24 27 28 27 26 23 18 18 18 17 17 16 17 13 12 14 13 13 12 12 11 11 11 12 13 14 15
17 30 25 35 26 26 33 32 32 30 33 35 35 35 27 27 21 16 24 24 24 21 18 17 16 17 17 15 15 13 11 11 12 11 11 11 11 11 10 11 11 12 12 12
20 21 17 31 21 25 30 29 28 29 26 27 31 32 27 21 10 19 21 18 16 19 19 16 17 14 12 13 12 10 9 11 10 10 9 9 9 9 10 10 10 10 11 11
25 21 20 28 22 20 27 21 23 28 25 22 19 19 18 18 18 18 21 20 17 17 14 13 12 11 11 10 9 8 9 9 8 8 8 7 8 9 9 9 9 9 9 10
31 26 21 18 22 26 32 25 22 22 22 8 12 13 16 14 14 15 11 12 12 12 12 9 10 9 9 9 8 8 9 8 7 7 6 6 6 7 7 7 7 8 9 10
24 28 27 18 10 10 17 13 23 10 13 12 11 8 10 10 10 11 12 12 11 11 10 9 8 9 8 8 9 9 7 8 8 8 6 5 4 5 5 5 6 7 8 10
20 26 33 26 18 19 17 14 4 9 6 10 14 10 10 9 7 11 12 12 11 10 8 7 7 8 7 8 9 9 10 9 8 7 5 4 5 5 5 4 5 7 9 10
15 19 16 19 17 16 11 12 7 9 9 10 7 8 14 9 13 13 12 12 11 10 8 7 8 8 9 10 9 9 10 11 10 9 7 6 7 6 6 6 6 7 8 9
14 20 15 14 12 11 11 5 8 5 8 10 10 11 11 13 14 13 12 11 10 9 8 8 9 9 10 10 10 11 12 12 11 10 8 8 8 8 8 7 8 9 11 13
17 19 27 25 14 9 8 9 14 14 14 15 14 13 14 15 15 12 11 10 10 9 8 8 10 10 11 12 11 11 11 11 11 12 11 10 11 11 10 10 11 13 14 15
13 16 14 12 13 12 16 9 13 14 12 11 14 14 16 18 17 11 10 9 9 9 9 9 11 11 11 11 12 10 12 12 13 12 11 12 13 13 13 15 15 16 18 19
12 16 14 18 10 12 14 14 8 10 13 13 14 14 16 17 14 11 10 9 10 10 9 10 11 11 11 11 11 10 12 14 14 14 14 15 16 16 17 17 19 20 22 23
Wind_Direction
270 263 256 262 263 279 278 275 279 275 276 289 284 280 269 270 262 261 266 253 268 269 262 283 276 270 266 267 272 277 281 285 289 294 299 299 298 297 297 296 296 293 292 290
262 249 266 269 265 267 278 277 278 281 279 275 279 276 273 266 268 274 247 233 244 238 269 290 286 274 269 272 275 279 286 291 296 300 301 301 301 302 301 300 299 298 296 295
249 249 219 288 278 273 271 275 281 282 285 278 290 280 279 273 273 259 249 237 228 231 269 288 292 284 282 284 288 294 297 300 302 301 303 305 306 306 305 305 303 301 299 297
261 257 259 262 268 270 275 277 281 290 293 283 279 292 284 282 274 276 231 205 213 242 276 287 291 289 289 291 292 295 297 297 300 304 308 310 312 313 313 311 308 306 304 299
227 268 263 260 260 268 276 271 293 283 282 287 275 268 285 284 279 262 212 203 238 259 279 289 289 291 289 287 288 290 292 296 303 310 315 319 323 324 323 323 322 320 317 311
257 243 258 259 259 265 270 276 276 276 269 262 275 259 269 289 266 193 195 241 252 279 292 298 284 295 288 286 289 286 289 296 307 313 319 326 331 334 335 335 333 329 326 321
274 261 269 253 258 260 257 267 277 267 251 259 276 282 9 259 273 145 199 247 266 287 299 293 288 288 287 285 282 285 289 298 305 309 318 327 333 338 343 342 347 353 346 331
279 280 274 238 226 262 267 245 238 280 300 304 300 293 302 282 272 211 200 263 285 290 290 285 288 284 281 282 287 286 289 297 300 305 310 325 333 337 343 350 353 359 5 6
278 271 260 237 232 257 273 262 265 274 277 282 276 279 261 262 306 16 4 328 306 290 285 289 282 266 284 292 291 290 293 296 299 305 310 314 326 335 342 348 356 1 8 16
262 277 262 269 268 263 254 265 285 277 282 271 275 291 299 275 282 311 305 297 279 301 311 297 278 277 292 293 288 286 288 289 295 302 304 310 314 324 337 344 354 4 9 17
258 263 270 266 247 258 273 244 247 261 264 280 276 280 328 323 289 284 278 307 294 303 310 296 275 277 295 297 290 285 282 283 291 298 303 309 314 320 330 340 344 360 3 11
262 275 270 260 260 261 264 269 272 276 274 271 275 276 286 322 286 312 304 305 297 299 301 284 278 270 274 279 282 282 280 285 291 296 301 306 310 316 329 336 346 351 357 10
247 255 266 274 266 256 251 266 269 278 274 274 269 271 305 300 290 303 289 296 290 295 288 292 283 267 275 276 276 276 276 282 290 294 300 304 309 320 327 338 345 349 352 7
255 261 261 274 282 296 291 281 279 277 273 282 278 291 286 294 298 296 288 282 294 296 292 285 281 273 268 271 270 271 275 283 290 296 301 307 313 315 327 334 340 346 351 1
261 264 263 265 272 275 275 277 279 282 278 272 281 289 293 294 294 286 271 282 298 298 289 283 282 281 287 283 272 265 272 277 290 295 303 307 305 315 327 331 338 346 353 360
259 263 263 267 270 274 277 274 272 271 275 278 279 281 289 289 282 282 287 292 295 290 281 286 277 284 285 274 263 264 274 278 282 292 300 304 312 322 328 333 337 342 349 355
254 259 267 271 277 281 271 269 271 271 270 270 269 273 287 294 274 292 304 308 290 283 286 280 283 287 278 265 260 263 267 274 282 293 303 312 318 322 326 332 339 345 349 0
251 250 257 270 281 269 270 277 268 261 266 267 271 281 284 279 286 295 298 301 294 286 283 283 286 283 273 266 263 258 261 270 284 300 308 313 321 326 331 339 348 353 360 10
249 241 253 251 256 272 277 277 282 273 259 278 276 280 293 303 304 299 293 302 291 287 286 293 287 277 268 263 253 248 256 265 282 285 295 305 314 323 330 342 353 1 7 15
236 235 232 250 268 273 290 271 250 266 263 253 255 267 278 294 297 305 310 306 304 299 295 283 274 263 258 253 250 250 253 263 264 267 267 285 299 306 316 332 346 1 11 15
211 213 226 236 252 266 278 284 318 254 263 286 315 230 300 299 303 310 305 302 296 288 286 278 265 260 263 263 259 258 255 254 256 256 256 278 290 288 296 316 344 3 6 10
236 201 220 234 245 262 258 261 257 270 273 303 295 266 296 297 307 311 297 289 286 286 285 269 264 274 274 266 260 252 247 247 248 244 246 258 272 278 287 302 323 339 342 342
235 217 225 227 238 236 236 252 278 283 292 294 287 280 290 300 307 302 288 285 280 280 273 268 270 283 280 271 261 255 257 255 246 243 242 255 265 270 280 295 311 322 327 332
250 244 247 249 272 319 306 206 273 263 275 280 284 281 291 294 305 296 280 277 270 270 264 268 285 286 281 273 261 255 254 251 245 243 247 256 265 274 287 298 306 312 318 323
275 272 258 260 270 258 265 257 274 273 278 281 271 281 290 298 302 286 277 268 263 264 265 272 284 284 276 267 263 261 251 247 248 250 262 270 272 277 287 294 301 308 313 317
283 279 290 277 272 268 278 293 294 287 283 267 277 280 288 294 290 278 270 264 264 265 266 273 282 281 274 269 268 261 259 257 259 263 268 276 279 284 289 290 297 302 305 309
Height
3113 3113 3113 3113 3113 3109 3108 3107 3106 3106 3105 3105 3103 3104 3106 3107 3098 3097 3099 3098 3099 3097 3088 3094 3096 3096 3095 3095 3094 3093 3092 3091 3088 3086 3084 3082 3079 3077 3074 3070 3067 3063 3059 3054
3110 3109 3111 3111 3108 3105 3104 3104 3104 3102 3103 3104 3101 3096 3100 3101 3100 3092 3092 3092 3093 3090 3088 3088 3089 3089 3089 3088 3088 3086 3084 3083 3080 3078 3076 3074 3072 3069 3066 3062 3058 3053 3049 3045
3103 3104 3102 3108 3107 3104 3104 3102 3101 3100 3099 3096 3095 3086 3094 3094 3091 3092 3087 3090 3091 3086 3083 3081 3084 3083 3081 3082 3080 3079 3077 3076 3075 3072 3070 3068 3065 3062 3058 3054 3049 3045 3040 3035
3099 3101 3100 3098 3104 3105 3101 3101 3097 3096 3096 3093 3095 3081 3088 3085 3084 3082 3081 3083 3083 3080 3080 3077 3077 3077 3076 3075 3074 3073 3072 3071 3070 3068 3066 3062 3058 3054 3049 3044 3039 3035 3030 3026
3095 3096 3096 3093 3098 3101 3100 3097 3096 3094 3093 3090 3088 3088 3068 3078 3078 3075 3072 3073 3076 3078 3078 3076 3074 3072 3071 3069 3069 3068 3067 3067 3065 3063 3060 3056 3052 3048 3043 3038 3033 3027 3021 3015
3091 3092 3094 3092 3092 3093 3096 3095 3094 3091 3090 3084 3080 3081 3071 3071 3070 3069 3067 3069 3073 3075 3074 3072 3070 3068 3066 3066 3065 3065 3064 3063 3061 3059 3056 3053 3050 3045 3041 3035 3030 3023 3016 3009
3086 3087 3088 3088 3089 3090 3092 3093 3091 3085 3083 3077 3073 3069 3067 3068 3070 3070 3065 3067 3068 3068 3068 3067 3066 3064 3064 3062 3062 3062 3061 3059 3058 3055 3054 3051 3048 3043 3038 3033 3028 3021 3013 3006
3085 3085 3086 3084 3084 3087 3087 3087 3086 3080 3077 3074 3073 3067 3066 3066 3068 3066 3065 3064 3065 3064 3064 3063 3062 3061 3060 3059 3059 3059 3059 3057 3055 3053 3052 3049 3045 3041 3036 3031 3025 3019 3012 3003
3082 3080 3082 3081 3082 3085 3083 3082 3081 3078 3077 3072 3071 3067 3068 3062 3063 3064 3063 3062 3063 3063 3062 3061 3059 3058 3057 3056 3056 3055 3054 3053 3051 3049 3048 3046 3043 3039 3034 3029 3024 3018 3012 3004
3080 3078 3079 3079 3080 3080 3079 3080 3078 3076 3074 3069 3064 3062 3060 3061 3062 3062 3062 3060 3061 3061 3059 3058 3057 3056 3055 3053 3053 3052 3051 3049 3048 3047 3045 3043 3040 3037 3033 3029 3024 3017 3012 3006
3079 3077 3076 3076 3075 3075 3076 3073 3073 3072 3071 3068 3064 3062 3061 3060 3059 3058 3058 3059 3059 3058 3057 3056 3054 3053 3051 3050 3050 3049 3048 3047 3045 3044 3042 3040 3037 3035 3031 3027 3023 3017 3013 3007
3077 3073 3072 3072 3071 3070 3071 3069 3069 3067 3064 3061 3062 3060 3059 3056 3059 3056 3055 3054 3053 3052 3051 3050 3050 3049 3048 3047 3046 3045 3045 3044 3043 3041 3040 3038 3035 3033 3029 3026 3021 3018 3014 3008
3073 3071 3068 3065 3067 3065 3064 3065 3066 3063 3059 3052 3058 3057 3056 3055 3055 3054 3048 3048 3048 3047 3047 3045 3043 3043 3042 3041 3041 3041 3041 3040 3040 3038 3037 3035 3033 3030 3028 3024 3020 3018 3014 3008
3069 3068 3067 3063 3064 3064 3061 3060 3060 3060 3056 3051 3049 3050 3052 3052 3050 3049 3042 3038 3041 3041 3041 3038 3038 3037 3036 3035 3036 3037 3037 3037 3037 3036 3034 3032 3030 3029 3026 3023 3020 3017 3014 3010
3066 3062 3064 3060 3061 3060 3057 3054 3053 3052 3049 3049 3046 3046 3045 3045 3044 3040 3036 3033 3034 3033 3034 3033 3033 3033 3032 3032 3032 3033 3033 3033 3033 3032 3031 3029 3028 3026 3024 3022 3019 3016 3013 3010
3061 3055 3059 3052 3055 3053 3048 3047 3046 3043 3041 3040 3039 3036 3040 3039 3034 3033 3031 3030 3029 3028 3028 3027 3028 3027 3027 3028 3028 3029 3030 3030 3030 3030 3029 3028 3026 3024 3023 3021 3019 3016 3013 3010
3055 3054 3054 3043 3049 3045 3038 3038 3037 3035 3035 3035 3033 3033 3034 3031 3026 3026 3026 3026 3025 3024 3023 3023 3023 3023 3023 3024 3025 3026 3027 3028 3028 3028 3027 3025 3024 3023 3022 3020 3018 3015 3013 3010
3046 3048 3049 3042 3045 3037 3029 3030 3030 3028 3028 3029 3028 3029 3026 3024 3026 3024 3022 3022 3021 3020 3019 3019 3019 3019 3020 3021 3022 3024 3025 3026 3026 3025 3025 3024 3023 3022 3021 3019 3017 3015 3013 3010
3037 3042 3042 3040 3037 3028 3024 3025 3026 3025 3022 3023 3024 3022 3019 3022 3021 3021 3020 3019 3018 3017 3016 3016 3016 3017 3018 3019 3021 3022 3023 3024 3024 3024 3023 3023 3022 3021 3020 3019 3017 3015 3013 3010
3031 3034 3038 3036 3032 3024 3020 3020 3020 3022 3021 3019 3019 3019 3019 3020 3019 3018 3018 3016 3015 3014 3014 3014 3015 3015 3016 3018 3019 3020 3021 3021 3022 3022 3022 3022 3021 3021 3020 3018 3017 3015 3013 3010
3024 3027 3026 3029 3029 3021 3019 3016 3015 3020 3021 3016 3016 3017 3017 3017 3017 3016 3015 3014 3013 3013 3013 3013 3013 3014 3015 3016 3017 3018 3019 3019 3020 3020 3020 3020 3020 3020 3019 3018 3016 3014 3013 3011
3019 3020 3022 3024 3025 3018 3016 3015 3016 3015 3014 3014 3015 3014 3014 3014 3014 3013 3012 3012 3011 3010 3010 3011 3011 3012 3013 3014 3014 3015 3016 3017 3017 3018 3018 3018 3018 3018 3018 3017 3016 3014 3012 3010
3015 3013 3016 3016 3013 3012 3011 3011 3012 3012 3012 3012 3012 3012 3011 3011 3011 3010 3009 3009 3008 3008 3008 3008 3009 3010 3011 3011 3012 3013 3014 3014 3015 3015 3016 3016 3016 3016 3015 3015 3013 3012 3010 3008
3010 3011 3007 3010 3008 3006 3007 3008 3010 3010 3010 3009 3009 3009 3009 3008 3007 3007 3006 3006 3006 3005 3005 3006 3006 3007 3008 3008 3009 3010 3011 3012 3012 3013 3013 3013 3013 3013 3013 3012 3011 3010 3008 3006
3006 3004 2999 3002 3006 3008 3005 3005 3005 3006 3006 3006 3006 3005 3004 3003 3003 3003 3003 3003 3003 3003 3003 3003 3004 3004 3005 3005 3006 3007 3008 3009 3010 3010 3011 3011 3011 3011 3011 3010 3009 3007 3005 3002
3004 3002 3001 3000 3001 3002 3002 3002 3002 3002 3002 3002 3002 3002 3001 3000 2999 2999 3000 3000 3000 3001 3001 3001 3001 3001 3002 3003 3003 3004 3005 3006 3007 3008 3008 3008 3008 3007 3006 3006 3004 3002 3000 2997